• In Deutschland
  • Länderverzeichnis
  • Für 7 Tage
  • Wassertemperatur
  • Satellitenkarten
  • Wetterkarte
  • Widgets
  • user-avatar
    Anmelden

    Stündliche Wetter Enkamp

    Heute, 26 Juli, Mittwoch

    Zeit Temperatur Niederschläge Wind Luftdruck Luftfeuchtigkeit
    00:00 +7°C° 0 mm 2 m/S 624 mmHg 85%
    01:00 +7°C° 0 mm 2 m/S 624 mmHg 85%
    02:00 +6°C° 0 mm 2 m/S 624 mmHg 84%
    03:00 +6°C° 0 mm 2 m/S 623 mmHg 84%
    04:00 +6°C° 0 mm 2 m/S 624 mmHg 79%
    05:00 +7°C° 0 mm 2 m/S 624 mmHg 75%
    06:00 +8°C° 0 mm 2 m/S 625 mmHg 71%
    07:00 +10°C° 0 mm 2 m/S 626 mmHg 63%
    08:00 +14°C° 0 mm 2 m/S 626 mmHg 55%
    09:00 +16°C° 0 mm 2 m/S 627 mmHg 46%
    10:00 +17°C° 0 mm 2 m/S 628 mmHg 43%
    11:00 +18°C° 0 mm 3 m/S 628 mmHg 40%
    12:00 +20°C° 0 mm 3 m/S 628 mmHg 36%
    13:00 +20°C° 0 mm 3 m/S 628 mmHg 37%
    14:00 +20°C° 0 mm 3 m/S 628 mmHg 38%
    15:00 +21°C° 0 mm 3 m/S 628 mmHg 39%
    16:00 +20°C° 0 mm 3 m/S 628 mmHg 44%
    17:00 +18°C° 0 mm 3 m/S 627 mmHg 50%
    18:00 +17°C° 0 mm 3 m/S 627 mmHg 56%
    19:00 +15°C° 0 mm 2 m/S 626 mmHg 65%
    20:00 +13°C° 0 mm 2 m/S 626 mmHg 75%
    21:00 +10°C° 0 mm 2 m/S 625 mmHg 84%
    22:00 +10°C° 0 mm 2 m/S 625 mmHg 84%
    23:00 +10°C° 0 mm 2 m/S 625 mmHg 84%

    Morgen, 27 Juli, Donnerstag

    Zeit Temperatur Niederschläge Wind Luftdruck Luftfeuchtigkeit
    00:00 +11°C° 0 mm 1 m/S 625 mmHg 84%
    01:00 +11°C° 0 mm 1 m/S 625 mmHg 83%
    02:00 +11°C° 0 mm 1 m/S 625 mmHg 81%
    03:00 +10°C° 0 mm 1 m/S 625 mmHg 80%
    04:00 +11°C° 0 mm 1 m/S 625 mmHg 76%
    05:00 +12°C° 0 mm 1 m/S 625 mmHg 73%
    06:00 +13°C° 0 mm 1 m/S 626 mmHg 70%
    07:00 +15°C° 0 mm 1 m/S 627 mmHg 61%
    08:00 +19°C° 0 mm 1 m/S 628 mmHg 53%
    09:00 +21°C° 0 mm 1 m/S 629 mmHg 45%
    10:00 +23°C° 0 mm 2 m/S 629 mmHg 42%
    11:00 +24°C° 0 mm 2 m/S 629 mmHg 39%
    12:00 +25°C° 0 mm 2 m/S 629 mmHg 37%
    13:00 +25°C° 0 mm 3 m/S 629 mmHg 37%
    14:00 +25°C° 0 mm 3 m/S 629 mmHg 37%
    15:00 +25°C° 0 mm 3 m/S 629 mmHg 38%
    16:00 +24°C° 0 mm 2 m/S 628 mmHg 41%
    17:00 +23°C° 0 mm 2 m/S 628 mmHg 44%
    18:00 +21°C° 0 mm 2 m/S 627 mmHg 48%
    19:00 +19°C° 0 mm 2 m/S 627 mmHg 57%
    20:00 +18°C° 0 mm 1 m/S 627 mmHg 66%
    21:00 +14°C° 0 mm 1 m/S 626 mmHg 75%
    22:00 +14°C° 0 mm 1 m/S 626 mmHg 76%
    23:00 +13°C° 0 mm 1 m/S 626 mmHg 77%

    übermorgen, 28 Juli, Freitag

    Zeit Temperatur Niederschläge Wind Luftdruck Luftfeuchtigkeit
    00:00 +13°C° 0 mm 1 m/S 626 mmHg 78%
    01:00 +13°C° 0 mm 1 m/S 626 mmHg 79%
    02:00 +12°C° 0 mm 1 m/S 626 mmHg 79%
    03:00 +12°C° 0 mm 1 m/S 626 mmHg 79%
    04:00 +13°C° 0 mm 1 m/S 626 mmHg 77%
    05:00 +13°C° 0 mm 1 m/S 627 mmHg 74%
    06:00 +14°C° 0 mm 1 m/S 627 mmHg 72%
    07:00 +16°C° 0 mm 1 m/S 628 mmHg 65%
    08:00 +18°C° 0 mm 2 m/S 629 mmHg 59%
    09:00 +20°C° 0 mm 2 m/S 630 mmHg 52%
    10:00 +21°C° 0 mm 3 m/S 630 mmHg 50%
    11:00 +22°C° 0 mm 3 m/S 631 mmHg 48%
    12:00 +24°C° 0 mm 3 m/S 631 mmHg 46%
    13:00 +24°C° 0 mm 3 m/S 631 mmHg 47%
    14:00 +24°C° 0 mm 3 m/S 630 mmHg 48%
    15:00 +24°C° 0 mm 3 m/S 630 mmHg 49%
    16:00 +22°C° 0,1 mm 3 m/S 630 mmHg 53%
    17:00 +21°C° 0,1 mm 2 m/S 629 mmHg 58%
    18:00 +20°C° 0,1 mm 2 m/S 629 mmHg 62%
    19:00 +19°C° 0 mm 1 m/S 629 mmHg 70%
    20:00 +16°C° 0 mm 1 m/S 628 mmHg 78%
    21:00 +13°C° 0 mm 0 m/S 628 mmHg 86%
    22:00 +14°C° 0 mm 1 m/S 628 mmHg 87%
    23:00 +14°C° 0 mm 1 m/S 628 mmHg 87%

    29 Juli, Samstag

    Zeit Temperatur Niederschläge Wind Luftdruck Luftfeuchtigkeit
    00:00 +14°C° 0 mm 1 m/S 628 mmHg 88%
    01:00 +14°C° 0 mm 1 m/S 627 mmHg 88%
    02:00 +13°C° 0 mm 1 m/S 627 mmHg 87%
    03:00 +13°C° 0 mm 1 m/S 627 mmHg 87%
    04:00 +14°C° 0 mm 1 m/S 627 mmHg 84%
    05:00 +15°C° 0 mm 1 m/S 627 mmHg 81%
    06:00 +15°C° 0 mm 1 m/S 628 mmHg 78%
    07:00 +19°C° 0 mm 1 m/S 628 mmHg 67%
    08:00 +20°C° 0 mm 2 m/S 629 mmHg 56%
    09:00 +24°C° 0 mm 3 m/S 630 mmHg 45%
    10:00 +25°C° 0 mm 3 m/S 631 mmHg 41%
    11:00 +26°C° 0 mm 4 m/S 631 mmHg 37%
    12:00 +27°C° 0 mm 4 m/S 631 mmHg 33%
    13:00 +27°C° 0 mm 4 m/S 631 mmHg 33%
    14:00 +27°C° 0 mm 4 m/S 630 mmHg 33%
    15:00 +27°C° 0 mm 4 m/S 630 mmHg 34%
    16:00 +26°C° 0,1 mm 4 m/S 629 mmHg 39%
    17:00 +25°C° 0,1 mm 3 m/S 629 mmHg 45%
    18:00 +23°C° 0,1 mm 2 m/S 628 mmHg 51%
    19:00 +20°C° 0,2 mm 2 m/S 628 mmHg 57%
    20:00 +19°C° 0,2 mm 1 m/S 628 mmHg 63%
    21:00 +16°C° 0,2 mm 1 m/S 627 mmHg 69%
    22:00 +16°C° 0 mm 1 m/S 627 mmHg 69%
    23:00 +15°C° 0 mm 1 m/S 627 mmHg 68%

    30 Juli, Sonntag

    Zeit Temperatur Niederschläge Wind Luftdruck Luftfeuchtigkeit
    00:00 +15°C° 0 mm 1 m/S 627 mmHg 68%
    01:00 +15°C° 0 mm 1 m/S 626 mmHg 66%
    02:00 +14°C° 0 mm 1 m/S 626 mmHg 64%
    03:00 +14°C° 0 mm 1 m/S 626 mmHg 63%
    04:00 +14°C° 0 mm 1 m/S 626 mmHg 62%
    05:00 +15°C° 0 mm 1 m/S 626 mmHg 62%
    06:00 +15°C° 0 mm 1 m/S 627 mmHg 61%
    07:00 +18°C° 0 mm 1 m/S 628 mmHg 56%
    08:00 +20°C° 0 mm 2 m/S 629 mmHg 51%
    09:00 +23°C° 0 mm 2 m/S 630 mmHg 46%
    10:00 +24°C° 0 mm 3 m/S 630 mmHg 43%
    11:00 +25°C° 0 mm 3 m/S 630 mmHg 41%
    12:00 +26°C° 0 mm 4 m/S 630 mmHg 38%
    13:00 +26°C° 0 mm 4 m/S 630 mmHg 38%
    14:00 +26°C° 0 mm 4 m/S 629 mmHg 37%
    15:00 +26°C° 0 mm 4 m/S 629 mmHg 37%
    16:00 +25°C° 0 mm 3 m/S 629 mmHg 42%
    17:00 +24°C° 0 mm 3 m/S 628 mmHg 48%
    18:00 +23°C° 0 mm 2 m/S 628 mmHg 53%
    19:00 +20°C° 0 mm 2 m/S 627 mmHg 62%
    20:00 +18°C° 0 mm 1 m/S 626 mmHg 71%
    21:00 +15°C° 0 mm 1 m/S 626 mmHg 80%
    22:00 +15°C° 0 mm 1 m/S 626 mmHg 81%
    23:00 +15°C° 0 mm 1 m/S 625 mmHg 82%

    31 Juli, Montag

    Zeit Temperatur Niederschläge Wind Luftdruck Luftfeuchtigkeit
    00:00 +14°C° 0 mm 1 m/S 625 mmHg 84%
    01:00 +14°C° 0 mm 2 m/S 625 mmHg 78%
    02:00 +14°C° 0 mm 2 m/S 624 mmHg 73%
    03:00 +14°C° 0 mm 2 m/S 624 mmHg 68%
    04:00 +14°C° 0 mm 2 m/S 624 mmHg 63%
    05:00 +15°C° 0 mm 2 m/S 624 mmHg 59%
    06:00 +16°C° 0 mm 2 m/S 625 mmHg 55%
    07:00 +18°C° 0 mm 3 m/S 626 mmHg 48%
    08:00 +21°C° 0 mm 3 m/S 627 mmHg 42%
    09:00 +25°C° 0 mm 3 m/S 628 mmHg 35%
    10:00 +26°C° 0 mm 4 m/S 628 mmHg 32%
    11:00 +27°C° 0 mm 5 m/S 628 mmHg 30%
    12:00 +28°C° 0 mm 5 m/S 628 mmHg 27%
    13:00 +28°C° 0 mm 5 m/S 628 mmHg 28%
    14:00 +28°C° 0 mm 6 m/S 627 mmHg 30%
    15:00 +27°C° 0 mm 6 m/S 627 mmHg 31%
    16:00 +26°C° 0,1 mm 5 m/S 626 mmHg 36%
    17:00 +23°C° 0,1 mm 4 m/S 626 mmHg 42%
    18:00 +22°C° 0,1 mm 3 m/S 625 mmHg 48%
    19:00 +20°C° 0 mm 3 m/S 625 mmHg 54%
    20:00 +18°C° 0 mm 2 m/S 625 mmHg 61%
    21:00 +15°C° 0 mm 2 m/S 624 mmHg 68%
    22:00 +15°C° 0 mm 1 m/S 624 mmHg 67%
    23:00 +14°C° 0 mm 1 m/S 624 mmHg 65%
    Mehr zeigen